Find Starlink 32853

NORAD ID: 62818 Int'l Des: 2025-018 Owner: SPXS Country: US Constellation: starlink operational
LEOCIRCULAR

Live-Position

3D-Globus wird geladen...

Über Starlink 32853

Beschreibung wird geladen...

Nächste Überflüge

Passes for default location (London). Set your location on the main map for personalized predictions.

Höhenverlauf

Loading altitude history...

Zweizeiliger Elementsatz

1 62818U 25018N 26125.19659535 .00035387 00000-0 12004-2 0 9995
2 62818 53.1592 46.8556 0001075 70.0329 290.0787 15.30221131 71831
Epoch: 5. Mai 2026 • Age: 4 hours

Aktueller Status

Höhe 493.8 km
Geschwindigkeit 7.62 km/s
Subsatellitenpunkt -52.15°S, 26.84°W
Startdatum 24. Jan. 2025
Alter 1.2 years
Typ internet

Technische Details

Klassifizierung Payload
Masse 730.00 kg
Trockenmasse 700.00 kg
Gesamtmasse 730.00 kg
Länge 0.30 m
Durchmesser 4.10 m
Spannweite 29.00 m
Form Box + pan
Hersteller SPXS
Bus-Typ Starlink V2M
Phasenstatus In Orbit
Besitzer/Staat SPXS/US

Most Searched